This is the latest recevied weather packets stored in our database for station/object K2ATL. If no packets are shown the sender has not sent any weather packets the latest 10 day(s).
| Time | Temp. | Humidity | Pressure | Rain* | Wind** | Luminosity | Snow |
|---|---|---|---|---|---|---|---|
| 1777821220 | 10.56° C | 53% | 1105 hPa | 0 mm | - | 775 W/m² | - |
| 1777820917 | 10.56° C | 51% | 1105.2 hPa | 0 mm | - | 761 W/m² | - |
| 1777820613 | 10.56° C | 53% | 1105.2 hPa | 0 mm | - | 744 W/m² | - |
| 1777820310 | 10° C | 55% | 1105.2 hPa | 0 mm | - | 734 W/m² | - |
| 1777820008 | 10° C | 56% | 1105.2 hPa | 0 mm | - | 718 W/m² | - |
| 1777819704 | 10° C | 56% | 1105.1 hPa | 0 mm | - | 694 W/m² | - |
| 1777819403 | 9.44° C | 58% | 1105.2 hPa | 0 mm | - | 687 W/m² | - |
| 1777819099 | 9.44° C | 58% | 1105.1 hPa | 0 mm | - | 657 W/m² | - |
| 1777818796 | 9.44° C | 61% | 1105.1 hPa | 0 mm | - | 655 W/m² | - |
| 1777818492 | 9.44° C | 59% | 1104.9 hPa | 0 mm | - | 643 W/m² | - |
| 1777818189 | 8.89° C | 59% | 1105 hPa | 0 mm | - | 620 W/m² | - |
| 1777817886 | 10° C | 59% | 1105 hPa | 0 mm | - | 604 W/m² | - |
| 1777817584 | 8.33° C | 60% | 1104.9 hPa | 0 mm | - | 583 W/m² | - |
| 1777817280 | 8.89° C | 61% | 1104.9 hPa | 0 mm | - | 571 W/m² | - |
| 1777816977 | 8.89° C | 62% | 1104.9 hPa | 0 mm | - | 555 W/m² | - |
| 1777816673 | 8.33° C | 62% | 1105.1 hPa | 0 mm | - | 539 W/m² | - |
| 1777816370 | 8.89° C | 60% | 1104.7 hPa | 0 mm | - | 518 W/m² | - |
| 1777816068 | 7.78° C | 62% | 1104.6 hPa | 0 mm | - | 500 W/m² | - |
| 1777815766 | 7.78° C | 65% | 1104.8 hPa | 0 mm | - | 482 W/m² | - |
| 1777815463 | 7.78° C | 65% | 1104.7 hPa | 0 mm | - | 465 W/m² | - |
| 1777815160 | 7.78° C | 69% | 1104.8 hPa | 0 mm | - | 435 W/m² | - |
| 1777814856 | 7.78° C | 67% | 1104.6 hPa | 0 mm | - | 423 W/m² | - |
| 1777814552 | 7.22° C | 69% | 1104.6 hPa | 0 mm | - | 406 W/m² | - |
| 1777814250 | 7.22° C | 69% | 1104.6 hPa | 0 mm | - | 387 W/m² | - |
| 1777813947 | 7.22° C | 71% | 1104.3 hPa | 0 mm | - | 362 W/m² | - |
* Rain latest hour (hover to see other rain measurements)
** Current wind speed in m/s (hover to see current wind gust speed)